Regional Weather Roundup
Issued by NWS

Home | Current Version | Previous Version | Text Only | Print | Product List | Glossary On
Versions: 1 2 3 4 5 6 7 8 9 10 11 12 13 14 15 16 17 18 19 20 21 22 23 24 25 26 27 28 29 30 31 32 33 34 35 36 37 38 39 40 41 42 43 44 45 46 47 48 49 50
000
ASUS43 KDTX 011301
RWRMI
MICHIGAN HOURLY REGIONAL WEATHER ROUNDUP
NATIONAL WEATHER SERVICE DETROIT/PONTIAC MI
900 AM EDT WED OCT 01 2014

NOTE: "FAIR" INDICATES FEW OR NO CLOUDS BELOW 12,000 FEET WITH NO
SIGNIFICANT WEATHER AND/OR OBSTRUCTION TO VISIBILITY.

MIZ047>049-052>055-059>063-066>070-074>076-081>083-011400-
SOUTHEAST LOWER MICHIGAN

CITY           SKY/WX    TMP DP  RH WIND       PRES   REMARKS
ADRIAN         SUNNY     52  50  93 N3        30.06R
ALMA           FOG       52  51  97 CALM      30.06R VSB 1/2
ANN ARBOR      MOSUNNY   56  50  80 CALM      30.05S
BAD AXE        CLOUDY    57  57 100 CALM      30.07R FOG
CARO           FOG       57  57 100 E5        30.05R VSB 1
DETROIT CITY   CLOUDY    55  54  96 CALM      30.05S VSB 1/2
DETROIT        MOSUNNY   56  52  86 CALM      30.06R
FLINT          FOG       55  52  89 MISG      30.06R VSB 1/2
GROSSE ILE     MOSUNNY   54  50  87 N3        30.04S FOG
HILLSDALE      MOSUNNY   53  52  95 CALM      30.05S
HOWELL         FOG       52  52 100 CALM      30.05S VSB 1/4

CITY           SKY/WX    TMP DP  RH WIND       PRES   REMARKS
JACKSON        CLOUDY    51  50  96 CALM      30.06R FOG
LAMBERTVILLE   SUNNY     50  48  93 CALM      30.06R FOG
LANSING        CLOUDY    51  50  96 CALM      30.06S FOG
LAPEER         FOG       55  54  97 CALM      30.05S VSB 1/4
MASON          FOG       51  50  97 CALM      30.06R VSB 1/4
MONROE         SUNNY     52  52 100 CALM      30.04R FOG
MT. CLEMENS    PTSUNNY   56  56  99 W3        30.03R FOG
PONTIAC        PTSUNNY   54  51  90 SE3       30.05R
PORT HOPE        N/A     59  58  96 E3        30.05R
PORT HURON     FOG       54  54 100 CALM      30.05R VSB 1
TRI CITIES     FOG       55  53  93 CALM      30.07R VSB 3/4
TROY           CLOUDY    56  52  88 CALM      30.07S FOG
SAGINAW HB     FOG       55  55 100 CALM      30.05R VSB 1/4
$$
MIZ043>046-050>051-056>058-064>065-071>073-077>080-011400-
SOUTHWEST LOWER MICHIGAN

CITY           SKY/WX    TMP DP  RH WIND       PRES   REMARKS
BATTLE CREEK   CLOUDY    52  46  80 SE8       30.06R
BENTON HARBOR  CLOUDY    53  48  83 SE6       30.04S
BIG RAPIDS     FOG       51  51 100 E5        30.05S VSB 1/4
COLDWATER      CLOUDY    54  48  80 E5        30.05S
FREMONT        CLOUDY    52  50  92 SE3       30.05S
GRAND RAPIDS   CLOUDY    53  51  93 E5        30.06R
IONIA          CLOUDY    52  52  99 CALM      30.05S FOG
KALAMAZOO      CLOUDY    52  47  83 S3        30.06R
LUDINGTON      CLOUDY    52  50  93 E5        30.05F
MARSHALL       CLOUDY    51  47  86 S3        30.05S
MOUNT PLEASANT FOG       52  52  99 CALM      30.05S VSB<1/4
MUSKEGON       CLOUDY    54  49  83 E6        30.05S
SOUTH HAVEN    CLOUDY    52  49  87 E5        30.05S
$$
MIZ016>042-011400-
NORTHERN LOWER MICHIGAN

CITY           SKY/WX    TMP DP  RH WIND       PRES   REMARKS
ALPENA         FOG       53  53 100 E7        30.08S VSB 1/2
BEAVER ISLAND  CLOUDY    55  53  94 SE3       30.06S
BELLAIRE       CLOUDY    52  50  92 CALM      30.07S
CADILLAC       FOG       49  49 100 E6        30.05S VSB 1/2
CHARLEVOIX     CLOUDY    54  54  99 SE3       30.09S
FRANKFORT      CLOUDY    53  49  87 CALM      30.06R
GAYLORD        FOG       50  49  96 E5        30.08R VSB 1/2
GRAYLING       FOG       51  51 100 E3        30.08R VSB 3/4
HARBOR SPRINGS CLOUDY    53  51  92 E6        30.08R
HOUGHTON LAKE  CLOUDY    51  51 100 E6        30.08R FOG
OSCODA         FOG       55  55 100 NE7       30.06R VSB 1
PELLSTON       CLOUDY    53  52  96 E5        30.08S
TRAVERSE CITY  CLOUDY    53  49  86 E3        30.04F
$$
MIZ007>008-015-011400-
EASTERN UPPER MICHIGAN

CITY           SKY/WX    TMP DP  RH WIND       PRES   REMARKS
MACKINAC ISLAN CLOUDY    53  52  97 SE5       30.08S FOG
NEWBERRY       CLOUDY    51  51  99 SE7       30.06S FOG
S. S. MARIE    CLOUDY    51  50  96 SE5       30.09R FOG
MUNISING         N/A     55  51  86 VRB6      30.03R
$$
MIZ004>006-011>014-085-011400-
CENTRAL UPPER MICHIGAN

CITY           SKY/WX    TMP DP  RH WIND       PRES   REMARKS
MANISTIQUE     CLOUDY    55  52  90 S8        30.05R
SAWYER-GWINN   FOG       48  46  93 S8        30.01F VSB 3/4
$$
MIZ001>003-009>011-084-011400-
WESTERN UPPER MICHIGAN

CITY           SKY/WX    TMP DP  RH WIND       PRES   REMARKS
IRON MOUNTAIN  CLOUDY    48  47  96 SE6       30.00S
HOUGHTON       CLOUDY    50  45  83 S12       29.96F
COPPER HARBOR    N/A     51  48  89 S14G25    29.95F
$$

ABBREVIATIONS USED IN REMARKS
   TC - TEMPERATURE IN CELSIUS
  WCI - WIND CHILL INDEX
   HX - HEAT INDEX
  VSB - VISIBILITY




USA.gov is the U.S. government's official web portal to all federal, state and local government web resources and services.